Station WDSV2 - 8638614 - Willoughby Deguassing Station, VA Image indicating link to RSS feed of recent meteorological observations for station WDSV2


Conditions at WDSV2 as of
(3:48 pm EDT)
1948 GMT on 04/23/2024:
     

Click on the graph icon in the table below to see a time series plot of the last five days of that observation.

5-day plot - Wind Direction Wind Direction (WDIR):ESE ( 120 deg true )
5-day plot - Wind Speed Wind Speed (WSPD): 14.0 kts
5-day plot - Wind Gust Wind Gust (GST): 15.9 kts
5-day plot - Atmospheric Pressure Atmospheric Pressure (PRES):30.08 in
5-day plot - Air Temperature Air Temperature (ATMP): 59.4 °F
5-day plot - Wind Speed at 10 Meters Wind Speed at 10 meters (WSPD10M): 15.5 kts
5-day plot - Wind Speed at 20 Meters Wind Speed at 20 meters (WSPD20M): 17.5 kts
5-day plot -  Wind Speed, Wind Gust and Atmospheric Pressure Combined plot of Wind Speed, Gust, and Air Pressure
NOS Water Level Observation Network Water Level
Previous observations
TIME
(EDT)
5-day plot - Wind Direction
WDIR
 
5-day plot - Wind Speed
WSPD
kts
5-day plot - Wind Gust
GST
kts
5-day plot - Wave Height
WVHT
ft
5-day plot - Dominant Wave Period
DPD
sec
5-day plot - Average Wave Period
APD
sec
5-day plot - Mean Wave Direction
MWD
 
5-day plot - Atmospheric Pressure
PRES
in
5-day plot - Pressure Tendency
PTDY
in
5-day plot - Air Temperature
ATMP
°F
5-day plot - Water Temperature
WTMP
°F
5-day plot - Dew Point
DEWP
°F
5-day plot - Salinity
SAL
psu
5-day plot - Visibility
VIS
nmi
5-day plot - Tide (above MLLW)
TIDE
ft
2024-04-23 03:42 pmESE 15.0 15.9----30.09- 59.0-----
2024-04-23 03:36 pmESE 14.0 15.9----30.09- 59.2-----
2024-04-23 03:30 pmESE 13.0 15.0----30.09- 60.1-----
2024-04-23 03:24 pmESE 13.0 15.0----30.09- 59.4-----
2024-04-23 03:18 pmESE 12.0 14.0----30.10- 59.0-----
2024-04-23 03:12 pmESE 9.9 13.0----30.11- 59.7-----
2024-04-23 03:06 pmESE 9.9 11.1----30.11- 60.1-----
2024-04-23 03:00 pm E 8.9 12.0----30.11-0.07 59.9-----
2024-04-23 02:54 pm E 11.1 12.0----30.11- 59.5-----
2024-04-23 02:48 pmESE 9.9 13.0----30.11- 59.5-----
2024-04-23 02:42 pm E 12.0 13.0----30.11- 58.8-----
2024-04-23 02:36 pmESE 9.9 11.1----30.12- 58.6-----
2024-04-23 02:30 pm E 8.9 9.9----30.12- 58.8-----
2024-04-23 02:24 pm E 8.0 9.9----30.12- 58.6-----
2024-04-23 02:18 pm E 8.9 11.1----30.12- 58.5-----
2024-04-23 02:12 pm E 8.0 8.9----30.12- 58.6-----
2024-04-23 02:06 pm E 7.0 9.9----30.13- 58.8-----
2024-04-23 02:00 pmESE 8.0 9.9----30.13-0.07 58.5-----
2024-04-23 01:54 pm E 7.0 8.0----30.14- 58.3-----
2024-04-23 01:48 pmESE 6.0 7.0----30.14- 58.6-----
2024-04-23 01:42 pm E 8.0 8.9----30.14- 58.5-----
2024-04-23 01:36 pm E 6.0 7.0----30.14- 58.5-----
2024-04-23 01:30 pm E 5.1 6.0----30.14- 58.3-----
2024-04-23 01:24 pmESE 2.9 5.1----30.14- 59.2-----
2024-04-23 01:18 pm E 5.1 7.0----30.15- 58.1-----
2024-04-23 01:12 pm E 5.1 6.0----30.15- 57.9-----
2024-04-23 01:06 pm E 6.0 6.0----30.15- 57.2-----
2024-04-23 01:00 pmESE 5.1 6.0----30.15-0.05 57.2-----
2024-04-23 12:54 pmESE 5.1 7.0----30.15- 56.8-----
2024-04-23 12:48 pm E 6.0 7.0----30.16- 56.7-----
2024-04-23 12:42 pm E 7.0 8.0----30.16- 56.3-----
2024-04-23 12:36 pm E 7.0 8.0----30.16- 56.1-----
2024-04-23 12:30 pmESE 6.0 8.0----30.16- 56.3-----
2024-04-23 12:24 pm E 7.0 7.0----30.16- 56.1-----
2024-04-23 12:18 pmESE 6.0 7.0----30.17- 56.1-----
2024-04-23 12:12 pmESE 6.0 7.0----30.17- 55.9-----
2024-04-23 12:06 pmESE 7.0 7.0----30.17- 55.6-----
2024-04-23 12:00 pmESE 7.0 8.0----30.18-0.02 55.2-----
2024-04-23 11:54 amESE 7.0 7.0----30.18- 55.0-----
2024-04-23 11:48 amESE 7.0 8.0----30.19- 54.9-----
2024-04-23 11:42 am E 6.0 7.0----30.19- 54.9-----
2024-04-23 11:36 am E 5.1 6.0----30.19- 54.7-----
2024-04-23 11:30 am E 6.0 7.0----30.19- 54.5-----
2024-04-23 11:24 am E 6.0 7.0----30.20- 54.5-----
2024-04-23 11:18 am E 5.1 6.0----30.20- 54.3-----
2024-04-23 11:12 am E 6.0 8.0----30.19- 54.1-----
2024-04-23 11:06 amESE 7.0 8.0----30.20- 53.8-----
2024-04-23 11:00 am E 7.0 7.0----30.20+0.01 54.0-----
2024-04-23 10:54 am E 6.0 7.0----30.20- 53.6-----
2024-04-23 10:48 am E 5.1 6.0----30.20- 53.8-----
2024-04-23 10:42 am E 5.1 7.0----30.20- 54.0-----
2024-04-23 10:36 am E 6.0 7.0----30.20- 53.6-----
2024-04-23 10:30 am E 6.0 7.0----30.21- 54.0-----
2024-04-23 10:24 amESE 4.1 6.0----30.21- 54.7-----
2024-04-23 10:18 amESE 6.0 8.0----30.21- 54.5-----
2024-04-23 10:12 amESE 4.1 5.1----30.21- 55.2-----
2024-04-23 10:06 am SE 1.9 2.9----30.21- 56.3-----
2024-04-23 10:00 am E 1.9 1.9----30.21+0.03 57.0-----
2024-04-23 09:54 am- 0.0 1.0----30.21- 60.6-----
2024-04-23 09:48 amESE 1.9 2.9----30.21- 56.5-----
2024-04-23 09:42 am- 0.0 1.9----30.21- 57.0-----
2024-04-23 09:36 am SW 1.0 1.9----30.21- 56.5-----
2024-04-23 09:30 am S 1.0 5.1----30.21- 55.8-----
2024-04-23 09:24 amESE 5.1 5.1----30.21- 54.3-----
2024-04-23 09:18 am- 0.0 1.9----30.20- 56.3-----
2024-04-23 09:12 am- 0.0 1.9----30.20- 55.8-----
2024-04-23 09:06 am E 1.9 6.0----30.20- 54.9-----
2024-04-23 09:00 am E 4.1 6.0----30.20+0.04 54.3-----
2024-04-23 08:54 am N 2.9 6.0----30.20- 54.5-----
2024-04-23 08:48 am NW 5.1 8.0----30.20- 54.0-----
2024-04-23 08:42 am NW 6.0 8.9----30.20- 53.8-----
2024-04-23 08:36 amWNW 6.0 7.0----30.20- 53.4-----
2024-04-23 08:30 am NW 6.0 8.0----30.20- 53.1-----
2024-04-23 08:24 amWNW 6.0 8.0----30.19- 52.7-----
2024-04-23 08:18 amWNW 6.0 7.0----30.20- 52.3-----
2024-04-23 08:12 amWNW 6.0 7.0----30.19- 52.2-----
2024-04-23 08:06 amWNW 6.0 7.0----30.19- 52.0-----
2024-04-23 08:00 amWNW 6.0 7.0----30.19+0.05 51.8-----
2024-04-23 07:54 amWNW 6.0 8.0----30.19- 51.4-----
2024-04-23 07:48 am W 8.0 8.9----30.19- 51.3-----
2024-04-23 07:42 am W 7.0 8.0----30.19- 51.4-----
2024-04-23 07:36 am W 7.0 8.9----30.19- 51.3-----
2024-04-23 07:30 am W 7.0 8.0----30.19- 51.4-----
2024-04-23 07:24 am W 8.0 8.9----30.18- 51.1-----
2024-04-23 07:18 am W 8.0 8.9----30.18- 51.1-----
2024-04-23 07:12 am W 8.0 8.9----30.18- 50.9-----
2024-04-23 07:06 am W 8.9 11.1----30.17- 50.9-----
2024-04-23 07:00 am W 9.9 12.0----30.17+0.05 50.9-----
2024-04-23 06:54 am W 11.1 12.0----30.17- 50.9-----
2024-04-23 06:48 am W 11.1 12.0----30.17- 50.5-----
2024-04-23 06:42 am W 11.1 12.0----30.17- 50.5-----
2024-04-23 06:36 am W 9.9 12.0----30.17- 50.4-----
2024-04-23 06:30 am W 11.1 12.0----30.16- 50.0-----
2024-04-23 06:24 am W 11.1 12.0----30.16- 50.4-----
2024-04-23 06:18 am NW 7.0 9.9----30.16- 50.2-----
2024-04-23 06:12 am NW 8.9 9.9----30.16- 50.0-----
2024-04-23 06:06 am NW 8.0 8.9----30.16- 50.0-----
2024-04-23 06:00 am NW 7.0 8.0----30.16+0.04 50.0-----
2024-04-23 05:54 am NW 7.0 9.9----30.16- 49.6-----
2024-04-23 05:48 am NW 8.9 12.0----30.16- 49.6-----
2024-04-23 05:42 amWNW 9.9 12.0----30.15- 49.8-----
2024-04-23 05:36 am NW 8.0 9.9----30.15- 49.8-----
2024-04-23 05:30 am NW 7.0 11.1----30.15- 49.6-----
2024-04-23 05:24 am NW 8.0 11.1----30.15- 49.8-----
2024-04-23 05:18 amWNW 11.1 13.0----30.14- 49.6-----
2024-04-23 05:12 am NW 9.9 13.0----30.14- 49.8-----
2024-04-23 05:06 amWNW 9.9 13.0----30.14- 49.8-----
2024-04-23 05:00 amWNW 11.1 13.0----30.14+0.00 50.0-----
2024-04-23 04:54 amWNW 9.9 12.0----30.14- 50.4-----
2024-04-23 04:48 amWNW 11.1 13.0----30.14- 50.2-----
2024-04-23 04:42 amWNW 12.0 13.0----30.14- 50.2-----
2024-04-23 04:36 amWNW 9.9 12.0----30.14- 50.4-----
2024-04-23 04:30 amWNW 8.9 11.1----30.14- 51.1-----
2024-04-23 04:24 am NW 8.0 11.1----30.14- 50.9-----
2024-04-23 04:18 amWNW 11.1 12.0----30.13- 50.5-----
2024-04-23 04:12 amWNW 8.9 12.0----30.13- 50.9-----
2024-04-23 04:06 amWNW 9.9 12.0----30.13- 50.5-----
2024-04-23 04:00 amWNW 9.9 13.0----30.13-0.01 50.4-----
2024-04-23 03:54 amWNW 11.1 13.0----30.13- 50.5-----
2024-04-23 03:48 amWNW 9.9 11.1----30.13- 50.7-----
2024-04-23 03:42 amWNW 9.9 12.0----30.12- 50.4-----
2024-04-23 03:36 amWNW 9.9 12.0----30.13- 50.5-----
2024-04-23 03:30 amWNW 9.9 12.0----30.13- 50.5-----
2024-04-23 03:24 amWNW 8.9 11.1----30.13- 50.7-----
2024-04-23 03:18 amWNW 8.9 11.1----30.13- 50.5-----
2024-04-23 03:12 amWNW 7.0 8.0----30.12- 50.4-----
2024-04-23 03:06 amWNW 7.0 8.0----30.12- 50.2-----
2024-04-23 03:00 am NW 5.1 6.0----30.12-0.02 50.2-----
2024-04-23 02:54 am NW 1.9 6.0----30.12- 50.0-----
2024-04-23 02:48 am NW 1.9 7.0----30.12- 49.6-----
2024-04-23 02:42 amWNW 2.9 5.1----30.12- 49.5-----
2024-04-23 02:36 am NW 1.9 5.1----30.13- 49.1-----
2024-04-23 02:30 amWNW 4.1 7.0----30.13- 48.7-----
2024-04-23 02:24 amWNW 5.1 7.0----30.13- 48.9-----
2024-04-23 02:18 amWNW 4.1 6.0----30.13- 49.1-----
2024-04-23 02:12 amWNW 5.1 7.0----30.13- 49.3-----
2024-04-23 02:06 amWNW 4.1 5.1----30.13- 49.5-----
2024-04-23 02:00 am W 4.1 6.0----30.14+0.00 49.5-----
2024-04-23 01:54 amWNW 2.9 4.1----30.14- 50.0-----
2024-04-23 01:48 amNNW 2.9 5.1----30.14- 50.4-----
2024-04-23 01:42 amWNW 1.9 5.1----30.14- 50.0-----
2024-04-23 01:36 am N 2.9 4.1----30.14- 50.2-----
2024-04-23 01:30 am NW 1.9 4.1----30.14- 50.2-----
2024-04-23 01:24 am W 2.9 5.1----30.14- 49.8-----
2024-04-23 01:18 am NW 2.9 6.0----30.14- 49.8-----
2024-04-23 01:12 am SW 2.9 7.0----30.14- 50.0-----
2024-04-23 01:06 am W 2.9 6.0----30.14- 50.2-----
2024-04-23 01:00 amWNW 1.9 6.0----30.14+0.00 50.2-----
2024-04-23 12:54 am NW 2.9 6.0----30.14- 50.2-----
2024-04-23 12:48 amNNW 1.9 4.1----30.14- 50.2-----
2024-04-23 12:42 am N 2.9 5.1----30.14- 50.2-----
2024-04-23 12:36 am NW 1.9 4.1----30.14- 49.8-----
2024-04-23 12:30 am NW 1.9 4.1----30.14- 49.6-----
2024-04-23 12:24 amWNW 2.9 7.0----30.14- 49.5-----
2024-04-23 12:18 am W 2.9 8.0----30.14- 49.5-----
2024-04-23 12:12 am E 1.9 7.0----30.15- 49.3-----
2024-04-23 12:06 am SE 4.1 8.0----30.15- 49.3-----
2024-04-23 12:00 amSSE 6.0 8.0----30.15+0.03 49.3-----
2024-04-22 11:54 pm SE 4.1 8.9----30.15- 49.3-----
2024-04-22 11:48 pmSSE 7.0 8.9----30.14- 49.1-----
2024-04-22 11:42 pmSSE 7.0 8.9----30.14- 49.1-----
2024-04-22 11:36 pmSSE 8.0 8.9----30.14- 49.1-----
2024-04-22 11:30 pmSSE 7.0 8.9----30.14- 49.1-----
2024-04-22 11:24 pmSSE 8.0 8.9----30.14- 49.1-----
2024-04-22 11:18 pmSSE 7.0 8.9----30.14- 49.3-----
2024-04-22 11:12 pmSSE 8.0 9.9----30.14- 49.5-----
2024-04-22 11:06 pmSSE 8.0 8.9----30.14- 49.5-----
2024-04-22 11:00 pmSSE 7.0 8.9----30.14+0.03 49.5-----
2024-04-22 10:54 pmSSE 8.0 8.9----30.14- 49.5-----
2024-04-22 10:48 pmSSE 8.0 8.9----30.14- 49.5-----
2024-04-22 10:42 pm S 7.0 8.9----30.14- 49.6-----
2024-04-22 10:36 pmSSE 6.0 8.9----30.14- 49.5-----
2024-04-22 10:30 pmSSE 7.0 8.9----30.14- 49.6-----
2024-04-22 10:24 pmSSE 8.0 9.9----30.14- 49.6-----
2024-04-22 10:18 pmSSE 8.9 9.9----30.14- 49.6-----
2024-04-22 10:12 pm S 8.9 9.9----30.14- 50.0-----
2024-04-22 10:06 pmSSE 8.0 9.9----30.13- 50.2-----
2024-04-22 10:00 pmSSE 8.0 8.9----30.14+0.03 50.4-----
2024-04-22 09:54 pmSSE 8.0 8.9----30.14- 50.4-----
2024-04-22 09:48 pmSSE 7.0 8.9----30.13- 50.7-----
2024-04-22 09:42 pm SE 6.0 8.0----30.13- 50.9-----
2024-04-22 09:36 pm SE 4.1 8.0----30.13- 51.1-----
2024-04-22 09:30 pmSSE 6.0 8.9----30.13- 51.3-----
2024-04-22 09:24 pmESE 2.9 8.9----30.13- 51.4-----
2024-04-22 09:18 pm SE 7.0 8.9----30.13-------
2024-04-22 09:12 pm SE 4.1 8.0----30.13-------
2024-04-22 09:06 pm SE 4.1 8.0----30.12-------
2024-04-22 09:00 pm SE 5.1 8.9----30.12+0.02 51.3-----
2024-04-22 08:54 pm SE 5.1 8.0----30.12- 51.1-----
2024-04-22 08:48 pm SE 5.1 8.0----30.12-------
2024-04-22 08:42 pm SE 4.1 8.0----30.11-------
2024-04-22 08:36 pm SE 6.0 8.0----30.11-------
2024-04-22 08:30 pm SE 5.1 8.9----30.11- 51.4-----
2024-04-22 08:24 pmESE 5.1 8.9----30.11- 51.4-----
2024-04-22 08:18 pm--------- 51.4-----
2024-04-22 08:12 pm--------- 51.6-----
2024-04-22 08:06 pm--------- 51.6-----
2024-04-22 08:00 pmENE 1.9 4.1----30.11+0.01 51.6-----
2024-04-22 07:54 pmENE 1.9 4.1----30.11- 51.8-----
2024-04-22 07:48 pmENE 1.9 4.1----30.10- 52.0-----
2024-04-22 07:42 pmENE 2.9 4.1----30.10- 51.8-----
2024-04-22 07:36 pmENE 2.9 6.0----30.10- 51.8-----
2024-04-22 07:30 pmENE 4.1 6.0----30.10- 51.8-----
2024-04-22 07:24 pm NE 4.1 5.1----30.10- 51.8-----
2024-04-22 07:18 pmENE 4.1 5.1----30.10- 51.8-----
2024-04-22 07:12 pm NE 1.9 2.9----30.10- 51.8-----
2024-04-22 07:06 pm- 0.0 7.0----30.10- 52.0-----
2024-04-22 07:00 pmESE 5.1 8.0----30.10+0.00 51.8-----
2024-04-22 06:54 pmESE 6.0 8.0----30.10- 51.8-----
2024-04-22 06:48 pm E 7.0 8.0----30.10- 52.0-----
2024-04-22 06:42 pm E 7.0 8.9----30.10- 52.0-----
2024-04-22 06:36 pm E 7.0 8.9----30.10- 52.0-----
2024-04-22 06:30 pm E 7.0 8.9----30.10- 52.0-----
2024-04-22 06:24 pm E 7.0 8.9----30.10- 52.2-----
2024-04-22 06:18 pm E 8.0 9.9----30.10- 52.2-----
2024-04-22 06:12 pm E 8.0 9.9----30.10- 52.2-----
2024-04-22 06:06 pm E 8.0 9.9----30.10- 52.0-----
2024-04-22 06:00 pm E 8.9 11.1----30.10-0.02 52.2-----
2024-04-22 05:54 pm E 8.9 12.0----30.10- 52.2-----
2024-04-22 05:48 pm E 8.0 9.9----30.10- 52.2-----
2024-04-22 05:42 pmENE 8.0 9.9----30.10- 52.7-----
2024-04-22 05:36 pmENE 8.0 11.1----30.10- 53.1-----
2024-04-22 05:30 pmENE 8.0 12.0----30.10- 52.9-----
2024-04-22 05:24 pm NE 8.0 9.9----30.10- 52.7-----
2024-04-22 05:18 pmENE 8.0 11.1----30.10- 52.7-----
2024-04-22 05:12 pmENE 8.9 11.1----30.10- 52.7-----
2024-04-22 05:06 pmENE 8.9 12.0----30.10- 52.5-----
2024-04-22 05:00 pmENE 8.0 9.9----30.10-0.02 52.7-----
2024-04-22 04:54 pm E 9.9 11.1----30.10- 52.7-----
2024-04-22 04:48 pm E 8.0 11.1----30.11- 52.5-----
2024-04-22 04:42 pm E 8.9 11.1----30.11- 52.5-----
2024-04-22 04:36 pmENE 9.9 12.0----30.11- 52.5-----
2024-04-22 04:30 pm E 9.9 12.0----30.11- 52.3-----
2024-04-22 04:24 pmENE 9.9 13.0----30.11- 52.2-----
2024-04-22 04:18 pmENE 8.0 12.0----30.11- 52.5-----
2024-04-22 04:12 pmENE 9.9 13.0----30.11- 52.3-----
2024-04-22 04:06 pmENE 12.0 14.0----30.11- 52.2-----
2024-04-22 04:00 pmENE 12.0 13.0----30.11-0.03 52.2-----
2024-04-22 03:54 pm NE 8.9 13.0----30.11- 52.2-----